Flag for Ecuador Weather past 2 weeks in Guayaquil, Ecuador

Now
86 °F

Passing clouds.


Feels Like: 89 °F
Forecast: 71 / 85 °F
Wind: 9 mph from South

Location: Guayaquil / Simon Bolivar

Current Time: Sep 23, 2014 at 1:43:01 PM

Latest Report: Sep 23, 2014 at 1:00 PM


Visibility: N/A

Pressure: 29.80 "Hg

Humidity: 55%

Dew point: 68 °F

Location of GuayaquilLocation

Historic Weather in Guayaquil — Graph

°F

Guayaquil temperature yesterday

Maximum temperature yesterday: 81 °F (at 1:00 PM)
Minimum temperature yesterday: 72 °F (at 12:00 AM)
Average temperature yesterday: 75 °F

Past Weeks' High & Low Weather Summary

 TemperatureHumidityPressure
High93 °F (Sep 14, 4:00 PM)94% (Sep 21, 2:00 PM)29.98 "Hg (Sep 21, 2:00 PM)
Low70 °F (Sep 9, 1:00 AM)39% (Sep 14, 4:00 PM)29.74 "Hg (Sep 10, 4:00 PM)
Average77 °F71%29.87 "Hg
* Reported Sep 8 12:00 Noon — Sep 23 12:00 Noon, Guayaquil, Weather by CustomWeather, © 2014

Note: Actual official high and low records may vary slightly from our data, if they occured in-between our weather recording intervals... More about our weather records

Advertising

Guayaquil weather history for previous 24 hours

 ConditionsComfort  
Time TempWeatherWind HumidityBarometerVisibility
12:00 PM
Sep 23
84 °FScattered clouds.7 mph62%29.86 "HgN/A
11:00 AM81 °FScattered clouds.7 mph66%29.89 "HgN/A
10:00 AM81 °FBroken clouds.5 mph66%29.92 "HgN/A
9:00 AM77 °FPartly sunny.3 mph74%29.92 "HgN/A
8:00 AM77 °FPartly sunny.3 mph74%29.92 "HgN/A
7:00 AM75 °FScattered clouds.7 mph78%29.89 "HgN/A
6:00 AM73 °FPassing clouds.7 mph83%29.86 "HgN/A
5:00 AM72 °FPassing clouds.7 mph88%29.86 "HgN/A
3:00 AM73 °FPassing clouds.8 mph83%29.86 "HgN/A
2:00 AM73 °FPassing clouds.8 mph83%29.89 "HgN/A
1:00 AM73 °FPassing clouds.9 mph83%29.89 "HgN/A
12:00 AM73 °FPassing clouds.10 mph83%29.92 "HgN/A
11:00 PM
Sep 22
73 °FPassing clouds.10 mph83%29.92 "HgN/A
10:00 PM75 °FPassing clouds.12 mph78%29.92 "HgN/A
9:00 PM75 °FPassing clouds.10 mph78%29.92 "HgN/A
8:00 PM77 °FPassing clouds.7 mph79%29.89 "HgN/A
7:00 PM79 °FPartly cloudy.7 mph74%29.89 "HgN/A
6:00 PM79 °FPartly sunny.7 mph74%29.89 "HgN/A
5:00 PM81 °FPartly sunny.7 mph66%29.86 "HgN/A
4:00 PM81 °FBroken clouds.7 mph70%29.86 "HgN/A
3:00 PM81 °FCloudy.5 mph66%29.86 "HgN/A
2:00 PM79 °FCloudy.7 mph70%29.89 "HgN/A
1:00 PM81 °FCloudy.8 mph66%29.92 "HgN/A
Weather by CustomWeather, © 2014

See weather overviewHow to use our weather pages